User: anonymous   Login
Location: Unspecified
(0.0000°N, 0.0000°E)
Time: 02:46:03
(UTC+01:00)
Language:

CZ-2C R/B - Orbit

View from above orbital plane
View from above orbital plane
View from above satellite
View from above satellite

Ground track
Ground track

The orbit data is extracted from the following two-line orbital elements,

1 28480U 04046B   17051.88558979  .00000021  00000-0  23578-4 0  9991
2 28480  98.1924 155.6006 0141617 207.3410 261.5747 14.25626891637661
Epoch (UTC): 20 February 2017 21:15:14
Eccentricity: 0.0141617
inclination: 98.1924°
perigee height: 704 km
apogee height: 908 km
right ascension of ascending node: 155.6006°
argument of perigee: 207.3410°
revolutions per day: 14.25626891
mean anomaly at epoch: 261.5747°
orbit number at epoch: 63766

The dashed part of the orbit path shows where the satellite is in the earth's shadow,  

DLR